Location: Newark
(13.6797°N, 8.5297°E)
Time: 03:34:00
(UTC+00:00)

A-11 Canister half - Pass Details

Date: 23 January 2020
Orbit: 1517 x 1683 km, 47.2° (Epoch: 18 February)

Event Time Altitude Azimuth Distance (km) Brightness Sun altitude
Rises 10:01:01 0° 280° (W) 4,738 11.3 49.2°
Reaches altitude 10° 10:07:06 10° 250° (WSW) 3,795 11.1 50.0°
Maximum altitude 10:10:05 12° 232° (SW) 3,680 11.2 50.4°
Drops below altitude 10° 10:13:05 10° 213° (SSW) 3,836 11.4 50.8°
Sets 10:19:27 0° 184° (S) 4,864 12.1 51.6°
